Aérodrome :
LOGIN :

S'inscrire | Disclaimer

   EN    FR    IT 

 










Légende :    VFR   VFR Marginal   IFR   IFR Intensif   IFR Très Intensif
Visi : 
Plafond : 
>= 8 km
>= 3000ft
5 à 8 km
1000 à 3000 ft
1500m à 5 km
500 à 1000 ft
800 à 1500m
200 à 500 ft
< 800m
< 200 ft
Symboles :   Orages  Brouillard  Fortes neiges  Fortes précipitations  Vent > 20 kt
SIGMETs :   Divers  Orages  Givrage  Turbulence  Onde Orograph.  Cendres Volcan.






- Altitude de l'aérodrome : 330 ft
- Code IATA : LVA


LFOV - Laval-Entrammes

DERNIER METAR :
  • 281800Z AUTO 07010KT 030V100 CAVOK 24/08 Q1024

METARs EXPIRÉS :
  • 281730Z AUTO 05012KT CAVOK 25/09 Q1025
  • 281700Z AUTO 06009KT CAVOK 25/10 Q1025
  • 281630Z AUTO 06011KT 030V090 CAVOK 26/10 Q1025
  • 281600Z AUTO 07010KT 030V110 CAVOK 26/10 Q1025
  • 281530Z AUTO 08009KT 030V120 CAVOK 26/10 Q1025

TAF N/A



MET'MAP, la Météo Aéronautique d'un coup d'oeil ! - Copyright ORBIFLY Décembre 2007 - Disclaimer

ORBIFLY MET'MAP TEAM :

Programmation & Développement : Alexandra Zaïnal
Sur une idée originale de : Baudouin d'Aumeries
Assistance à la programmation : Marc-Olivier Méhu
Soutien technique & logistique : Manuel Goepfert

Contact : metmap@orbifly.com




SOURCES & CREDITS :

   NOAA